User: anonymous   Login
Location: Unspecified
(0.0000°N, 0.0000°E)
Time: 22:20:57
(UTC+00:00)
Language:

TBA - TO BE ASSIGNED - Orbit

View from above orbital plane
View from above orbital plane
View from above satellite
View from above satellite

Ground track
Ground track

The orbit is defined by the following mean orbital elements,

1 68317U          26145.33326318 +.00000000 +00000-0 +91026-3 0 00006
2 68317  97.2855 271.6353 0001217  63.2279 296.9111 15.75172270    06
Epoch (UTC): 25 May 2026 07:59:53
Eccentricity: 0.0001217
inclination: 97.2855°
perigee height: 343 km
apogee height: 345 km
right ascension of ascending node: 271.6353°
argument of perigee: 63.2279°
revolutions per day: 15.75172270
mean anomaly at epoch: 296.9111°

The dashed part of the orbit path shows where the satellite is in the earth's shadow,  

DLR